Tracking 29892 objects as of 21-Nov-2024
HD Live streaming from Space Station
objects crossing your sky now

WESTAR 5

Track WESTAR 5 now!
WESTAR 5 is classified as:


NORAD ID: 13269
Int'l Code: 1982-058A
Perigee: 36,008.7 km
Apogee: 36,174.9 km
Inclination: 13.7 °
Period: 1,451.4 minutes
Semi major axis: 42462 km
RCS: 3.0486 m2 (large)
Launch date: June 9, 1982
Source: United States (US)
Launch site: AIR FORCE EASTERN TEST RANGE (AFETR)
Your satellite tracking list
Your tracking list is empty




NASA's NSSDC Master Catalog

Two Line Element Set (TLE):
1 13269U 82058A   24325.72581492 -.00000136  00000-0  00000-0 0  9999
2 13269  13.6694 341.2552 0019572 256.0498  92.5091  0.99217801113842
Source of the keplerian elements: AFSPC